Location: Newark
(25.0000°N, 73.5000°E)
Time: 02:55:24
(UTC+00:00)

A-11 Canister half - All Passes

Search period start: 04 August 2021 00:00
Search period end: 14 August 2021 00:00
Orbit: 1527 x 1682 km, 47.3° (Epoch: 03 August)

Date Brightness Start Highest point End Pass type
(mag) Time Alt. Az. Time Alt. Az. Time Alt. Az.
04 Aug - 03:00:27 10° SSW 03:09:44 43° SE 03:19:06 10° ENE daylight
04 Aug - 05:04:50 10° WSW 05:14:43 56° NW 05:24:38 10° NE daylight
04 Aug - 07:14:23 10° WNW 07:21:57 23° NNW 07:29:28 10° NNE daylight
04 Aug - 09:23:49 10° NW 09:30:53 21° N 09:37:49 10° ENE daylight
04 Aug - 11:29:03 10° NW 11:38:28 46° NE 11:47:32 10° ESE daylight
04 Aug - 13:34:16 10° WNW 13:43:35 52° SW 13:52:37 10° SSE daylight
05 Aug - 02:38:57 10° SSW 02:48:05 41° SE 02:57:18 10° ENE daylight
05 Aug - 04:43:03 10° WSW 04:52:59 59° NW 05:02:58 10° NE daylight
05 Aug - 06:52:25 10° WNW 07:00:07 24° NNW 07:07:46 10° NNE daylight
05 Aug - 09:02:01 10° NW 09:09:02 20° N 09:15:55 10° NE daylight
05 Aug - 11:07:22 10° NW 11:16:44 44° NE 11:25:45 10° ESE daylight
05 Aug - 13:12:31 10° NW 13:21:57 56° SW 13:31:05 10° SSE daylight
06 Aug - 02:17:29 10° S 02:26:26 38° SE 02:35:28 10° ENE daylight
06 Aug - 04:21:18 10° WSW 04:31:15 62° NW 04:41:18 10° NE daylight
06 Aug - 06:30:27 10° WNW 06:38:17 24° NNW 06:46:03 10° NNE daylight
06 Aug - 08:40:14 10° NW 08:47:11 20° N 08:54:01 10° NE daylight
06 Aug - 10:45:42 10° NW 10:55:00 42° NNE 11:03:57 10° ESE daylight
06 Aug - 12:50:46 10° NW 13:00:19 60° SW 13:09:33 10° SSE daylight
07 Aug - 01:56:01 10° S 02:04:47 35° SE 02:13:38 10° ENE daylight
07 Aug - 03:59:32 10° WSW 04:09:32 65° NW 04:19:37 10° NE daylight
07 Aug - 06:08:31 10° WNW 06:16:27 25° NNW 06:24:22 10° NNE daylight
07 Aug - 08:18:25 10° NW 08:25:19 20° N 08:32:07 10° NE daylight
07 Aug - 10:24:01 10° NW 10:33:15 41° NNE 10:42:09 10° E daylight
07 Aug - 12:29:01 10° NW 12:38:40 64° SW 12:47:59 10° SSE daylight
07 Aug - 14:40:40 10° WSW 14:42:34 11° WSW 14:44:27 10° SW visible
08 Aug - 01:34:35 10° S 01:43:08 33° SE 01:51:47 10° ENE daylight
08 Aug - 03:37:47 10° WSW 03:47:49 68° NW 03:57:56 10° NE daylight
08 Aug - 05:46:33 10° WNW 05:54:37 26° NNW 06:02:40 10° NNE daylight
08 Aug - 07:56:36 10° NW 08:03:28 20° N 08:10:13 10° NE daylight
08 Aug - 10:02:21 10° NW 10:11:30 39° NNE 10:20:20 10° E daylight
08 Aug - 12:07:17 10° NW 12:17:01 68° SW 12:26:25 10° SSE daylight
08 Aug - 14:17:40 10° WSW 14:20:57 12° WSW 14:24:13 10° SW visible
09 Aug - 01:13:11 10° S 01:21:30 31° SE 01:29:55 10° ENE daylight
09 Aug - 03:16:04 10° SW 03:26:06 72° NW 03:36:16 10° NE daylight
09 Aug - 05:24:37 10° WNW 05:32:47 27° NNW 05:40:59 10° NNE daylight
09 Aug - 07:34:46 10° NW 07:41:36 20° N 07:48:20 10° NE daylight
09 Aug - 09:40:39 10° NW 09:49:44 37° NNE 09:58:31 10° E daylight
09 Aug - 11:45:34 10° NW 11:55:22 72° SW 12:04:50 10° SE daylight
09 Aug - 13:55:09 10° W 13:59:20 14° WSW 14:03:30 10° SSW daylight
10 Aug - 00:51:47 10° S 00:59:51 29° SE 01:08:01 10° ENE daylight
10 Aug - 02:54:20 10° SW 03:04:23 76° NW 03:14:35 10° NE daylight
10 Aug - 05:02:41 10° WNW 05:10:58 28° NNW 05:19:17 10° NNE daylight
10 Aug - 07:12:55 10° NW 07:19:44 19° N 07:26:27 10° NE daylight
10 Aug - 09:18:58 10° NW 09:27:58 36° NNE 09:36:41 10° E daylight
10 Aug - 11:23:49 10° NW 11:33:43 76° SW 11:43:15 10° SE daylight
10 Aug - 13:32:48 10° W 13:37:43 15° WSW 13:42:36 10° SSW daylight
11 Aug - 00:30:26 10° S 00:38:14 27° SE 00:46:06 10° ENE daylight
11 Aug - 02:32:38 10° SW 02:42:41 79° NW 02:52:53 10° NE daylight
11 Aug - 04:40:45 10° W 04:49:09 29° NNW 04:57:36 10° NNE daylight
11 Aug - 06:51:04 10° NW 06:57:51 19° N 07:04:35 10° NE daylight
11 Aug - 08:57:17 10° NW 09:06:11 34° NNE 09:14:50 10° E daylight
11 Aug - 11:02:06 10° NW 11:12:03 80° SW 11:21:38 10° SE daylight
11 Aug - 13:10:36 10° W 13:16:07 17° WSW 13:21:35 10° SSW daylight
12 Aug - 00:09:07 10° S 00:16:35 25° SE 00:24:09 10° ENE visible
12 Aug - 02:10:57 10° SW 02:20:58 83° NW 02:31:12 10° NE daylight
12 Aug - 04:18:49 10° W 04:27:21 30° NNW 04:35:54 10° NNE daylight
12 Aug - 06:29:13 10° NW 06:36:00 19° N 06:42:43 10° NE daylight
12 Aug - 08:35:35 10° NW 08:44:24 33° NNE 08:52:58 10° E daylight
12 Aug - 10:40:24 10° NW 10:50:24 84° SW 11:00:01 10° SE daylight
12 Aug - 12:48:27 10° W 12:54:30 18° WSW 13:00:28 10° SSW daylight
12 Aug - 23:47:49 10° S 23:54:57 23° SE 00:02:10 10° ENE visible
13 Aug - 01:49:16 10° SW 01:59:16 87° NW 02:09:30 10° NE daylight
13 Aug - 03:56:54 10° W 04:05:32 31° NNW 04:14:14 10° NNE daylight
13 Aug - 06:07:20 10° NW 06:14:07 19° N 06:20:50 10° NE daylight
13 Aug - 08:13:54 10° NW 08:22:37 32° NNE 08:31:06 10° E daylight
13 Aug - 10:18:41 10° NW 10:28:43 89° SW 10:38:23 10° SE daylight
13 Aug - 12:26:23 10° W 12:32:53 20° SW 12:39:17 10° SSW daylight
13 Aug - 23:26:34 10° SSE 23:33:19 21° SE 23:40:09 10° E visible
